sat.trackr.live / text

‹ back to catalog

STARLINK-6328

NORAD 56523 · 2023-065W

PAYLOAD ACTIVE UNKNOWN

§ Identity

Operator
Country
US
Launch date
2023-05-14
Launch site
AFETR
Launch vehicle
Mass (kg)
RCS (m²)

Purposes: comms

External: N2YO · Heavens-Above · Gunter

§ Orbital elements

Epoch: 2026-05-24T11:09:15.921504Z

Period
94.27 min
Inclination
43.0024°
Eccentricity
0.0001617
Mean motion
15.27578327 rev/d
Perigee alt
481.9 km
Apogee alt
484.2 km
Semi-major
6,861.2 km
B*
4.6194e-5
RAAN
144.9542°
Arg perigee
284.9871°
Mean anomaly
75.0802°
Rev number
16,818

§ Raw data

STARLINK-63281 56523U 23065W   26144.46476761  .00001009  00000+0  46194-4 0  99922 56523  43.0024 144.9542 0001617 284.9871  75.0802 15.27578327168182

JSON: /api/v1/satellites/56523 · /tle

For live sub-satellite position, see the globe view (requires WebGL).

§ Visibility from observer

Set your observer location to see the next 7 days of passes ≥ 10°. The values pass through the URL so the page stays shareable.

No JS? Fill the form by hand. The geolocation button needs JavaScript.